{"data":{"norad_id":67800,"intl_designator":"2026-032D","name":"STARLINK-36354","alt_names":[],"object_type":"PAYLOAD","status":"ACTIVE","operator":null,"country":"US","launch_date":"2026-02-15","launch_site_code":"AFWTR","launch_vehicle":null,"mission":null,"orbit_class":"UNKNOWN","rcs_meters":null,"size_class":null,"mass_kg":null,"dimensions":null,"purposes":["comms"],"wikipedia_slug":null,"has_3d_model":false,"image_url":null,"decayed_at":null,"tle_current":{"epoch":"2026-09-19T19:01:49.285056Z","epoch_age_seconds":127579,"freshness":"FRESH","line1":"1 67800U 26032D   26262.79293154  .00013188  00000+0  40986-3 0  9992","line2":"2 67800  97.2850  89.1579 0002184  86.8881 273.2611 15.33463689 34701","mean_motion":15.33463689,"eccentricity":0.0002184,"inclination_deg":97.285,"raan_deg":89.1579,"arg_perigee_deg":86.8881,"mean_anomaly_deg":273.2611,"bstar":0.00040986,"rev_number":3470,"period_min":93.905060180398,"perigee_km":463.99292212167,"apogee_km":466.98221733373,"semimajor_km":6843.6245697277,"source":"CELESTRAK","updated_at":"2026-09-20T09:00:43.662174Z"}}}